Find Starlink 33813

NORAD ID: 63585 Int'l Des: 2025-076 Owner: SPXS Country: US Constellation: starlink operational
LEOCIRCULAR

Live Position

Loading 3D Globe...

About Starlink 33813

Description loading...

Upcoming Passes

Passes for default location (London). Set your location on the main map for personalized predictions.

Altitude History

Loading altitude history...

Two-Line Element Set

1 63585U 25076S 26126.61080590 .00027201 00000-0 99418-3 0 9999
2 63585 43.0002 354.1585 0000703 22.8162 337.2721 15.27585268 60695
Epoch: May 6, 2026 • Age: 8 hours

Current Status

Altitude 485.8 km
Velocity 7.63 km/s
Sub-Earth Point 42.65°N, 136.29°W
Launch Date Apr 14, 2025
Age 1 years
Type internet

Technical Details

Classification Payload
Mass 575.00 kg
Dry Mass 530.00 kg
Total Mass 575.00 kg
Length 0.30 m
Diameter 4.10 m
Span 29.00 m
Shape Box + pan
Manufacturer SPXS
Bus Type Starlink V2MO
Phase Status In Orbit
Owner/State SPXS/US

Most Searched